SCP
-0 -0 -0 -0 -0 -0 -1 -0 0 1 0 0 0 0 0 0 0 0 0 -0 0 0 0 0 0 0 0 0 0 0 0 0 0
-0 -0 -0 -0 -0 -0 -0 -0 0 0 0 0 0 0 0 0 0 0 0 0 0 0 0 0 0 0 0 0 0 0 0 0 0
0 0 -0 0 -0 -1 -1 -1 -0 0 0 0 0 0 0 0 0 0 0 0 0 0 0 0 0 0 0 0 0 0 0 0 0
0 0 -0 -0 -0 -0 -1 -1 -1 1 1 0 0 0 0 0 0 0 0 0 0 0 0 0 0 0 0 0 0 0 0 0 0
0 0 0 -0 -0 -0 -0 0 1 1 1 1 1 1 0 0 0 0 0 0 0 0 0 0 0 0 0 0 0 0 0 0 0
-0 0 0 0 0 0 0 0 2 2 1 1 2 1 0 0 0 0 0 0 0 0 0 0 0 0 0 0 0 0 0 0 0
0 0 0 0 0 0 0 1 1 3 3 2 1 1 0 0 0 0 0 0 0 0 0 0 0 0 0 0 0 0 0 0 0
0 0 0 0 0 0 1 1 2 3 3 3 1 1 0 0 0 0 0 0 0 0 0 0 0 0 0 0 0 0 0 0 0
0 0 0 0 0 1 2 2 2 3 3 2 1 1 1 0 0 0 0 0 0 0 0 0 0 0 0 0 0 0 0 0 0
0 0 0 0 1 1 2 3 3 3 2 1 1 1 0 0 0 0 0 0 0 0 0 0 0 0 0 0 0 0 0 0 0
0 0 0 0 0 1 2 4 4 2 1 1 1 0 0 1 0 0 0 0 0 0 0 0 0 0 0 0 0 0 0 0 0
0 0 0 0 0 0 1 2 2 1 1 1 1 0 0 1 1 0 0 0 0 0 1 0 0 0 0 0 0 0 0 0 0
0 0 0 0 0 1 2 2 2 1 1 0 0 0 0 1 0 0 0 0 1 1 1 1 0 0 0 0 0 0 0 0 0
0 0 0 0 1 2 2 1 1 1 1 1 0 0 0 0 1 0 1 1 2 1 1 0 0 0 0 0 0 0 0 0 0
0 0 0 0 1 2 2 1 2 1 1 0 0 0 0 0 0 -0 -0 2 1 0 0 0 0 0 0 0 0 0 0 0 0
0 0 0 0 1 5 5 4 1 0 0 0 0 0 0 0 0 0 0 0 0 0 0 0 0 0 0 0 0 0 0 0 0
0 0 0 2 2 1 1 0 0 0 0 0 0 0 0 0 0 0 0 0 0 0 0 0 0 0 0 0 0 0 0 0 0
0 0 0 1 1 0 0 0 0 0 0 0 0 0 0 0 0 0 0 0 0 0 0 0 0 0 0 0 0 0 0 0 0
0 -0 0 0 0 0 0 0 0 0 0 0 0 0 0 0 0 0 0 0 0 0 0 0 0 0 0 0 0 0 0 0 0
1 0 0 0 0 0 0 0 0 0 0 0 0 0 0 0 0 0 0 0 0 0 0 0 0 0 0 0 0 0 0 0 0
Wind_Speed_500mb
85 85 97 104 99 94 87 83 78 72 71 66 58 50 49 38 17 14 20 24 19 17 18 23 23 21 18 12 12 6 6 6 9
77 85 93 104 103 97 94 91 88 85 80 77 66 61 56 43 22 18 19 17 17 21 25 24 19 18 20 23 17 11 12 11 13
74 80 90 97 105 103 101 97 94 90 87 83 74 66 61 46 32 22 20 22 22 24 25 22 21 22 16 14 16 18 17 20 21
66 84 95 101 106 108 106 104 103 97 95 88 80 72 63 50 41 32 20 19 21 21 20 18 16 18 19 19 18 19 24 25 25
70 82 95 104 107 108 111 112 112 106 103 93 85 78 67 58 47 34 24 23 22 18 13 15 17 19 18 17 18 20 20 19 23
57 60 83 96 99 104 113 118 117 113 108 99 87 80 72 60 53 41 32 29 28 20 19 18 18 16 13 13 14 14 13 18 21
57 55 63 82 90 106 114 114 119 117 113 102 89 83 78 67 61 47 37 30 27 27 25 22 21 19 16 17 19 21 20 24 26
50 54 59 73 84 96 100 102 110 113 112 106 94 91 81 73 58 50 41 31 28 30 31 27 23 22 22 25 27 26 28 32 32
54 44 40 37 58 85 93 98 103 111 115 110 98 89 85 72 60 54 47 35 31 32 36 32 27 26 26 32 33 32 35 36 36
46 35 21 14 22 58 79 94 102 107 109 110 102 97 84 70 61 53 56 40 35 36 39 36 34 29 29 34 31 34 37 35 38
37 28 22 18 16 23 41 66 94 99 103 110 98 89 72 68 61 53 60 45 42 44 43 41 37 34 37 35 34 37 39 37 39
31 28 25 19 23 30 37 45 78 95 98 101 95 88 69 71 62 61 60 51 48 49 46 45 42 41 44 36 46 47 40 39 39
27 34 23 14 24 31 36 41 52 79 92 96 101 92 68 71 66 62 59 53 52 47 44 43 46 43 44 38 45 42 40 41 45
19 15 17 23 30 32 33 39 50 72 89 92 82 71 63 61 61 67 64 54 48 43 44 49 50 45 40 41 36 45 38 39 42
7 23 35 38 42 39 36 39 52 71 82 85 73 63 61 42 35 61 73 50 43 41 47 51 45 20 34 33 34 38 42 39 36
26 32 23 47 54 47 45 50 60 70 75 69 68 61 46 18 22 33 61 22 40 51 52 48 37 30 30 30 35 38 34 34 30
31 42 39 40 61 50 50 54 57 70 66 55 56 41 28 47 31 18 36 49 50 56 43 34 33 31 32 28 29 30 33 25 24
25 35 41 36 56 54 54 59 60 64 45 28 14 10 3 10 24 29 35 50 44 38 34 29 25 28 26 27 28 26 26 27 24
21 21 25 27 43 47 50 48 45 34 23 23 12 14 12 16 21 51 39 44 47 42 35 24 26 25 26 24 24 24 24 26 23
25 19 15 19 30 36 42 31 16 16 21 22 17 20 25 19 33 36 41 34 29 25 19 20 23 26 19 17 16 15 17 17 17
Wind_Direction_500mb
197 195 193 196 198 197 201 204 210 210 211 213 214 215 219 218 222 212 194 194 195 201 229 251 255 269 280 285 304 302 292 288 305
193 196 193 197 203 203 203 206 209 212 214 215 214 216 217 216 218 230 220 210 214 229 243 262 257 269 282 288 274 282 267 262 264
192 196 197 200 204 208 208 210 211 214 217 214 212 214 220 217 217 218 217 220 229 238 239 238 251 257 265 272 267 275 275 274 278
192 195 199 205 210 212 213 213 214 216 217 216 213 214 218 218 219 220 211 215 217 217 221 231 249 267 276 278 279 286 291 286 283
211 201 202 210 216 214 215 216 215 218 219 218 215 214 217 221 219 221 223 233 234 232 242 252 264 263 267 276 288 291 286 288 287
211 213 203 208 212 214 217 217 219 218 220 218 216 216 219 215 219 218 224 233 233 237 240 238 243 246 263 296 298 291 287 284 285
177 184 199 207 215 218 221 220 223 219 220 219 215 217 221 216 217 218 223 228 230 230 228 230 242 252 273 284 287 288 296 294 291
179 185 190 204 214 218 222 219 222 222 221 221 217 217 221 217 219 219 221 224 226 224 223 231 245 260 281 287 287 288 287 291 289
182 195 204 217 222 221 222 223 225 225 222 222 215 217 222 217 220 219 225 226 224 223 226 231 244 263 285 288 288 286 284 285 289
155 149 152 176 231 237 229 227 228 226 224 223 218 218 217 217 215 224 229 228 226 229 233 237 243 259 274 279 290 289 288 283 285
156 157 182 194 231 233 237 240 233 230 228 225 217 216 216 214 215 226 229 230 231 233 237 241 249 260 267 275 286 299 292 293 285
160 170 172 204 237 253 252 242 234 230 227 222 218 216 223 222 218 230 232 235 236 237 241 247 252 265 273 280 293 297 289 286 280
174 168 174 223 251 263 256 246 238 231 227 219 216 219 230 217 219 231 236 243 243 241 246 261 262 264 274 297 297 291 286 284 279
163 206 240 240 242 255 260 241 236 228 221 219 226 229 221 215 233 246 242 249 250 244 250 255 262 263 278 278 290 288 289 288 273
330 225 228 232 235 234 248 242 235 221 209 205 204 198 201 226 254 247 250 247 251 256 261 264 269 292 280 279 284 281 292 288 288
314 304 279 241 229 228 229 230 223 208 193 195 197 196 196 173 230 295 317 294 269 267 267 267 283 279 281 283 278 286 279 286 285
306 296 285 277 227 233 227 217 208 202 197 200 196 197 234 250 204 290 294 277 273 265 263 269 279 286 300 294 285 274 282 276 281
290 300 296 270 224 227 209 194 193 192 197 180 204 231 326 212 210 212 252 260 249 264 254 262 273 281 277 276 279 276 273 275 276
288 311 301 228 185 177 166 168 170 157 134 117 133 141 178 200 212 228 234 243 254 256 261 262 267 269 272 275 280 282 280 277 269
269 269 275 200 176 154 142 132 138 183 184 187 254 259 277 229 224 224 231 233 243 250 252 267 278 269 266 269 278 285 288 287 271
Wind_Speed_850mb
85 85 97 104 99 94 87 83 78 72 71 66 58 50 49 38 17 14 20 24 19 17 18 23 23 21 18 12 12 6 6 6 9
77 85 93 104 103 97 94 91 88 85 80 77 66 61 56 43 22 18 19 17 17 21 25 24 19 18 20 23 17 11 12 11 13
74 80 90 97 105 103 101 97 94 90 87 83 74 66 61 46 32 22 20 22 22 24 25 22 21 22 16 14 16 18 17 20 21
66 84 95 101 106 108 106 104 103 97 95 88 80 72 63 50 41 32 20 19 21 21 20 18 16 18 19 19 18 19 24 25 25
70 82 95 104 107 108 111 112 112 106 103 93 85 78 67 58 47 34 24 23 22 18 13 15 17 19 18 17 18 20 20 19 23
57 60 83 96 99 104 113 118 117 113 108 99 87 80 72 60 53 41 32 29 28 20 19 18 18 16 13 13 14 14 13 18 21
57 55 63 82 90 106 114 114 119 117 113 102 89 83 78 67 61 47 37 30 27 27 25 22 21 19 16 17 19 21 20 24 26
50 54 59 73 84 96 100 102 110 113 112 106 94 91 81 73 58 50 41 31 28 30 31 27 23 22 22 25 27 26 28 32 32
54 44 40 37 58 85 93 98 103 111 115 110 98 89 85 72 60 54 47 35 31 32 36 32 27 26 26 32 33 32 35 36 36
46 35 21 14 22 58 79 94 102 107 109 110 102 97 84 70 61 53 56 40 35 36 39 36 34 29 29 34 31 34 37 35 38
37 28 22 18 16 23 41 66 94 99 103 110 98 89 72 68 61 53 60 45 42 44 43 41 37 34 37 35 34 37 39 37 39
31 28 25 19 23 30 37 45 78 95 98 101 95 88 69 71 62 61 60 51 48 49 46 45 42 41 44 36 46 47 40 39 39
27 34 23 14 24 31 36 41 52 79 92 96 101 92 68 71 66 62 59 53 52 47 44 43 46 43 44 38 45 42 40 41 45
19 15 17 23 30 32 33 39 50 72 89 92 82 71 63 61 61 67 64 54 48 43 44 49 50 45 40 41 36 45 38 39 42
7 23 35 38 42 39 36 39 52 71 82 85 73 63 61 42 35 61 73 50 43 41 47 51 45 20 34 33 34 38 42 39 36
26 32 23 47 54 47 45 50 60 70 75 69 68 61 46 18 22 33 61 22 40 51 52 48 37 30 30 30 35 38 34 34 30
31 42 39 40 61 50 50 54 57 70 66 55 56 41 28 47 31 18 36 49 50 56 43 34 33 31 32 28 29 30 33 25 24
25 35 41 36 56 54 54 59 60 64 45 28 14 10 3 10 24 29 35 50 44 38 34 29 25 28 26 27 28 26 26 27 24
21 21 25 27 43 47 50 48 45 34 23 23 12 14 12 16 21 51 39 44 47 42 35 24 26 25 26 24 24 24 24 26 23
25 19 15 19 30 36 42 31 16 16 21 22 17 20 25 19 33 36 41 34 29 25 19 20 23 26 19 17 16 15 17 17 17
Wind_Direction_850mb
197 195 193 196 198 197 201 204 210 210 211 213 214 215 219 218 222 212 194 194 195 201 229 251 255 269 280 285 304 302 292 288 305
193 196 193 197 203 203 203 206 209 212 214 215 214 216 217 216 218 230 220 210 214 229 243 262 257 269 282 288 274 282 267 262 264
192 196 197 200 204 208 208 210 211 214 217 214 212 214 220 217 217 218 217 220 229 238 239 238 251 257 265 272 267 275 275 274 278
192 195 199 205 210 212 213 213 214 216 217 216 213 214 218 218 219 220 211 215 217 217 221 231 249 267 276 278 279 286 291 286 283
211 201 202 210 216 214 215 216 215 218 219 218 215 214 217 221 219 221 223 233 234 232 242 252 264 263 267 276 288 291 286 288 287
211 213 203 208 212 214 217 217 219 218 220 218 216 216 219 215 219 218 224 233 233 237 240 238 243 246 263 296 298 291 287 284 285
177 184 199 207 215 218 221 220 223 219 220 219 215 217 221 216 217 218 223 228 230 230 228 230 242 252 273 284 287 288 296 294 291
179 185 190 204 214 218 222 219 222 222 221 221 217 217 221 217 219 219 221 224 226 224 223 231 245 260 281 287 287 288 287 291 289
182 195 204 217 222 221 222 223 225 225 222 222 215 217 222 217 220 219 225 226 224 223 226 231 244 263 285 288 288 286 284 285 289
155 149 152 176 231 237 229 227 228 226 224 223 218 218 217 217 215 224 229 228 226 229 233 237 243 259 274 279 290 289 288 283 285
156 157 182 194 231 233 237 240 233 230 228 225 217 216 216 214 215 226 229 230 231 233 237 241 249 260 267 275 286 299 292 293 285
160 170 172 204 237 253 252 242 234 230 227 222 218 216 223 222 218 230 232 235 236 237 241 247 252 265 273 280 293 297 289 286 280
174 168 174 223 251 263 256 246 238 231 227 219 216 219 230 217 219 231 236 243 243 241 246 261 262 264 274 297 297 291 286 284 279
163 206 240 240 242 255 260 241 236 228 221 219 226 229 221 215 233 246 242 249 250 244 250 255 262 263 278 278 290 288 289 288 273
330 225 228 232 235 234 248 242 235 221 209 205 204 198 201 226 254 247 250 247 251 256 261 264 269 292 280 279 284 281 292 288 288
314 304 279 241 229 228 229 230 223 208 193 195 197 196 196 173 230 295 317 294 269 267 267 267 283 279 281 283 278 286 279 286 285
306 296 285 277 227 233 227 217 208 202 197 200 196 197 234 250 204 290 294 277 273 265 263 269 279 286 300 294 285 274 282 276 281
290 300 296 270 224 227 209 194 193 192 197 180 204 231 326 212 210 212 252 260 249 264 254 262 273 281 277 276 279 276 273 275 276
288 311 301 228 185 177 166 168 170 157 134 117 133 141 178 200 212 228 234 243 254 256 261 262 267 269 272 275 280 282 280 277 269
269 269 275 200 176 154 142 132 138 183 184 187 254 259 277 229 224 224 231 233 243 250 252 267 278 269 266 269 278 285 288 287 271